Location: Hamayl? Da??
(36.7028°N, 30.1716°E)
Time: 12:38:09
(UTC+00:00)

Cosmos 1461 - Pass Details

Date: 04 August 2024
Orbit: 493 x 569 km, 65.0° (Epoch: 11 September)

Event Time Altitude Azimuth Distance (km) Brightness Sun altitude
Rises 18:15:04 0° 334° (NNW) 2,596 7.4 -13.7°
Reaches altitude 10° 18:17:14 10° 338° (NNW) 1,717 6.2 -14.1°
Maximum altitude 18:21:01 60° 59° (ENE) 588 2.8 -14.7°
Enters shadow 18:22:51 28° 129° (SE) 979 3.5 -15.0°
